DELTA 1 DEB, 10831

Orbit data source: Space-Track

DELTA 1 DEB, 10831 is space debris in SSO originally from a launch on Thu, 29 Jul 1976 UTC launched from the Air Force Western Test Range (AFWTR). Debris objects in space refer to the collection of defunct objects orbiting the Earth. Examples of debris include non-operational satellites, rocket bodies, and fragments generated from explosions, collisions, or faulty payload assembly.

Loading next visibility...
Identifier
10831, 1976-077CB
Orbit
SSO
Country
Flag of USUS
Related business
Manufacturer
Unknown
Mission
Spacecraft
Bus & Motor
Unknown
Mass
Unknown
Launch date (UTC)
1976-07-29 (50 years ago)
Launch vehicle
Unknown
Launch site
Air Force Western Test Range (AFWTR)
Object type
Payload
Rocket body
Debris
Shape & HBR
Unknown shape, 0.1 m
Radar Cross Section
Small (<0.1 m²)

Expand to show TLE details & history
Last TLE update: 2 months ago

TLE from 2 months ago
0 DELTA 1 DEB
1 10831U 76077CB  25337.32821007  .00097488  00000-0  48506-1 0  9993
2 10831 101.1635 282.5958 0732353 313.2957  40.9261 13.26968241227278
Epoch: 2025-12-03T07:52Z
TLE epoch observation values (Epoch: 2025-12-03T07:52:37.350Z)
Latitude
-0.00004°
Longitude
92.0396°
Altitude
762.738 km
Speed
7.668 km/s
True Right ascension
18h 50m 22s
True Declination
0° 00' 00"
Sunlit
Object was in daylight at epoch
Visualization orbit readout
Latitude
Unknown
Longitude
Unknown
Altitude
Unknown
Speed
Unknown
Apparent Right ascension
Unknown
Apparent Declination
Unknown
Sunlit
N/A
Visualization observer readout
Local Sidereal Time
10:08:01
Azimuth
Unknown
Elevation
Unknown
Doppler factor
Unknown
Orbital elements
Apogee altitude
1,707.348 km
Perigee altitude
603.875 km
Semi-major axis
7,533.748 km
Eccentricity
0.07324
Inclination
101.1635°
RAAN
282.5958°
Arg. of periapsis
313.2957°
True anomaly
46.82035°
Mean anomaly
40.9261°
Eccentric anomaly
43.83208°
Mean motion
3.31915 °/min
Orbital period
108.46 mins
BSTAR
0.048506
Loading maneuver chart data...
Computing Atmospheric mass density...
Loading historical data...
Loading historical data...
Loading historical data...
Loading historical data...
Loading historical data...
Loading historical data...
Loading historical data...

Documentation

Showing up to 5 results
|